TimeMDT,TemperatureF,Dew PointF,Humidity,Sea Level PressureIn,VisibilityMPH,Wind Direction,Wind SpeedMPH,Gust SpeedMPH,PrecipitationIn,Events,Conditions,WindDirDegrees,DateUTC
12:53 AM,50.0,46.0,86,29.72,10.0,West,5.8,-,N/A,,Mostly Cloudy,270,2012-10-16 06:53:00
1:53 AM,48.9,45.0,86,29.70,10.0,WSW,5.8,-,N/A,,Clear,250,2012-10-16 07:53:00
2:53 AM,48.0,44.1,86,29.68,10.0,SSW,4.6,-,N/A,,Clear,210,2012-10-16 08:53:00
3:53 AM,45.0,43.0,93,29.64,10.0,SSE,5.8,-,N/A,,Clear,150,2012-10-16 09:53:00
4:53 AM,45.0,43.0,93,29.62,10.0,SSE,8.1,-,N/A,,Clear,150,2012-10-16 10:53:00
6:53 AM,44.1,42.1,93,29.56,10.0,SSE,9.2,-,N/A,,Clear,160,2012-10-16 12:53:00
7:53 AM,45.0,42.1,90,29.54,10.0,SSE,5.8,-,N/A,,Clear,160,2012-10-16 13:53:00
8:53 AM,46.9,43.0,86,29.50,10.0,SSE,9.2,-,N/A,,Mostly Cloudy,150,2012-10-16 14:53:00
9:53 AM,50.0,45.0,83,29.45,10.0,South,12.7,-,N/A,,Scattered Clouds,170,2012-10-16 15:53:00
10:53 AM,50.0,45.0,83,29.40,10.0,SSE,12.7,-,0.00,Rain,Light Rain,160,2012-10-16 16:53:00
11:53 AM,52.0,46.9,83,29.37,10.0,SSE,8.1,-,0.01,,Overcast,150,2012-10-16 17:53:00
12:53 PM,54.0,46.9,77,29.34,10.0,SE,5.8,-,0.01,,Overcast,140,2012-10-16 18:53:00
1:53 PM,53.1,48.9,86,29.39,6.0,NNW,11.5,-,0.03,Rain,Rain,330,2012-10-16 19:53:00
2:53 PM,54.0,51.1,90,29.37,8.0,Variable,5.8,-,0.06,Rain,Light Rain,0,2012-10-16 20:53:00
3:53 PM,54.0,52.0,93,29.37,10.0,SW,8.1,-,0.00,,Scattered Clouds,220,2012-10-16 21:53:00
4:53 PM,54.0,51.1,90,29.36,10.0,SW,10.4,-,N/A,,Clear,230,2012-10-16 22:53:00
5:53 PM,53.1,50.0,89,29.37,10.0,SW,9.2,-,N/A,,Clear,230,2012-10-16 23:53:00
6:53 PM,55.0,48.0,77,29.41,10.0,WNW,20.7,26.5,N/A,,Overcast,290,2012-10-17 00:53:00
7:53 PM,52.0,43.0,71,29.43,10.0,WNW,13.8,-,N/A,,Overcast,290,2012-10-17 01:53:00
8:53 PM,52.0,32.0,47,29.46,10.0,WNW,20.7,32.2,N/A,,Mostly Cloudy,290,2012-10-17 02:53:00
9:53 PM,50.0,28.0,43,29.49,10.0,WNW,24.2,34.5,N/A,,Clear,290,2012-10-17 03:53:00
10:53 PM,48.9,28.9,46,29.53,10.0,West,19.6,26.5,N/A,,Partly Cloudy,270,2012-10-17 04:53:00
11:53 PM,46.9,34.0,61,29.54,10.0,WNW,34.5,54.1,N/A,,Scattered Clouds,290,2012-10-17 05:53:00